locationName,lineName,date,time,countIn,countOut
��Ƃ�̍L��,�����w����,2022/4/1,0:00,9,6
��Ƃ�̍L��,�����w����,2022/4/1,1:00,5,1
��Ƃ�̍L��,�����w����,2022/4/1,2:00,6,2
��Ƃ�̍L��,�����w����,2022/4/1,3:00,7,6
��Ƃ�̍L��,�����w����,2022/4/1,4:00,15,13
��Ƃ�̍L��,�����w����,2022/4/1,5:00,17,11
��Ƃ�̍L��,�����w����,2022/4/1,6:00,33,24
��Ƃ�̍L��,�����w����,2022/4/1,7:00,58,50
��Ƃ�̍L��,�����w����,2022/4/1,8:00,60,79
��Ƃ�̍L��,�����w����,2022/4/1,9:00,99,105
��Ƃ�̍L��,�����w����,2022/4/1,10:00,123,129
��Ƃ�̍L��,�����w����,2022/4/1,11:00,186,154
��Ƃ�̍L��,�����w����,2022/4/1,12:00,193,212
��Ƃ�̍L��,�����w����,2022/4/1,13:00,239,170
��Ƃ�̍L��,�����w����,2022/4/1,14:00,196,185
��Ƃ�̍L��,�����w����,2022/4/1,15:00,189,131
��Ƃ�̍L��,�����w����,2022/4/1,16:00,161,109
��Ƃ�̍L��,�����w����,2022/4/1,17:00,106,101
��Ƃ�̍L��,�����w����,2022/4/1,18:00,104,102
��Ƃ�̍L��,�����w����,2022/4/1,19:00,50,52
��Ƃ�̍L��,�����w����,2022/4/1,20:00,31,31
��Ƃ�̍L��,�����w����,2022/4/1,21:00,34,30
��Ƃ�̍L��,�����w����,2022/4/1,22:00,19,26
��Ƃ�̍L��,�����w����,2022/4/1,23:00,14,17
��Ƃ�̍L��,�����w����,2022/4/2,0:00,8,5
��Ƃ�̍L��,�����w����,2022/4/2,1:00,4,4
��Ƃ�̍L��,�����w����,2022/4/2,2:00,5,6
��Ƃ�̍L��,�����w����,2022/4/2,3:00,6,5
��Ƃ�̍L��,�����w����,2022/4/2,4:00,9,6
��Ƃ�̍L��,�����w����,2022/4/2,5:00,19,13
��Ƃ�̍L��,�����w����,2022/4/2,6:00,28,16
��Ƃ�̍L��,�����w����,2022/4/2,7:00,34,17
��Ƃ�̍L��,�����w����,2022/4/2,8:00,73,70
��Ƃ�̍L��,�����w����,2022/4/2,9:00,215,152
��Ƃ�̍L��,�����w����,2022/4/2,10:00,187,202
��Ƃ�̍L��,�����w����,2022/4/2,11:00,249,225
��Ƃ�̍L��,�����w����,2022/4/2,12:00,295,274
��Ƃ�̍L��,�����w����,2022/4/2,13:00,303,291
��Ƃ�̍L��,�����w����,2022/4/2,14:00,269,249
��Ƃ�̍L��,�����w����,2022/4/2,15:00,382,282
��Ƃ�̍L��,�����w����,2022/4/2,16:00,262,230
��Ƃ�̍L��,�����w����,2022/4/2,17:00,198,202
��Ƃ�̍L��,�����w����,2022/4/2,18:00,132,101
��Ƃ�̍L��,�����w����,2022/4/2,19:00,78,67
��Ƃ�̍L��,�����w����,2022/4/2,20:00,58,69
��Ƃ�̍L��,�����w����,2022/4/2,21:00,40,37
��Ƃ�̍L��,�����w����,2022/4/2,22:00,28,42
��Ƃ�̍L��,�����w����,2022/4/2,23:00,20,22
��Ƃ�̍L��,�����w����,2022/4/3,0:00,11,10
��Ƃ�̍L��,�����w����,2022/4/3,1:00,11,1
��Ƃ�̍L��,�����w����,2022/4/3,2:00,6,8
��Ƃ�̍L��,�����w����,2022/4/3,3:00,9,11
��Ƃ�̍L��,�����w����,2022/4/3,4:00,5,4
��Ƃ�̍L��,�����w����,2022/4/3,5:00,24,11
��Ƃ�̍L��,�����w����,2022/4/3,6:00,18,14
��Ƃ�̍L��,�����w����,2022/4/3,7:00,41,16
��Ƃ�̍L��,�����w����,2022/4/3,8:00,72,64
��Ƃ�̍L��,�����w����,2022/4/3,9:00,112,108
��Ƃ�̍L��,�����w����,2022/4/3,10:00,238,162
��Ƃ�̍L��,�����w����,2022/4/3,11:00,356,278
��Ƃ�̍L��,�����w����,2022/4/3,12:00,342,357
��Ƃ�̍L��,�����w����,2022/4/3,13:00,355,319
��Ƃ�̍L��,�����w����,2022/4/3,14:00,323,364
��Ƃ�̍L��,�����w����,2022/4/3,15:00,312,283
��Ƃ�̍L��,�����w����,2022/4/3,16:00,300,282
��Ƃ�̍L��,�����w����,2022/4/3,17:00,196,172
��Ƃ�̍L��,�����w����,2022/4/3,18:00,115,111
��Ƃ�̍L��,�����w����,2022/4/3,19:00,47,37
��Ƃ�̍L��,�����w����,2022/4/3,20:00,37,24
��Ƃ�̍L��,�����w����,2022/4/3,21:00,25,22
��Ƃ�̍L��,�����w����,2022/4/3,22:00,13,8
��Ƃ�̍L��,�����w����,2022/4/3,23:00,8,6
��Ƃ�̍L��,�����w����,2022/4/4,0:00,4,1
��Ƃ�̍L��,�����w����,2022/4/4,1:00,3,3
��Ƃ�̍L��,�����w����,2022/4/4,2:00,2,5
��Ƃ�̍L��,�����w����,2022/4/4,3:00,7,6
��Ƃ�̍L��,�����w����,2022/4/4,4:00,13,5
��Ƃ�̍L��,�����w����,2022/4/4,5:00,19,8
��Ƃ�̍L��,�����w����,2022/4/4,6:00,33,16
��Ƃ�̍L��,�����w����,2022/4/4,7:00,52,48
��Ƃ�̍L��,�����w����,2022/4/4,8:00,61,93
��Ƃ�̍L��,�����w����,2022/4/4,9:00,75,107
��Ƃ�̍L��,�����w����,2022/4/4,10:00,113,157
��Ƃ�̍L��,�����w����,2022/4/4,11:00,206,182
��Ƃ�̍L��,�����w����,2022/4/4,12:00,246,211
��Ƃ�̍L��,�����w����,2022/4/4,13:00,199,218
��Ƃ�̍L��,�����w����,2022/4/4,14:00,231,198
��Ƃ�̍L��,�����w����,2022/4/4,15:00,184,167
��Ƃ�̍L��,�����w����,2022/4/4,16:00,142,101
��Ƃ�̍L��,�����w����,2022/4/4,17:00,113,74
��Ƃ�̍L��,�����w����,2022/4/4,18:00,65,60
��Ƃ�̍L��,�����w����,2022/4/4,19:00,24,34
��Ƃ�̍L��,�����w����,2022/4/4,20:00,46,35
��Ƃ�̍L��,�����w����,2022/4/4,21:00,37,28
��Ƃ�̍L��,�����w����,2022/4/4,22:00,7,14
��Ƃ�̍L��,�����w����,2022/4/4,23:00,7,6
��Ƃ�̍L��,�����w����,2022/4/5,0:00,5,2
��Ƃ�̍L��,�����w����,2022/4/5,1:00,7,4
��Ƃ�̍L��,�����w����,2022/4/5,2:00,3,4
��Ƃ�̍L��,�����w����,2022/4/5,3:00,8,7
��Ƃ�̍L��,�����w����,2022/4/5,4:00,11,7
��Ƃ�̍L��,�����w����,2022/4/5,5:00,18,8
��Ƃ�̍L��,�����w����,2022/4/5,6:00,32,20
��Ƃ�̍L��,�����w����,2022/4/5,7:00,55,30
��Ƃ�̍L��,�����w����,2022/4/5,8:00,45,77
��Ƃ�̍L��,�����w����,2022/4/5,9:00,93,96
��Ƃ�̍L��,�����w����,2022/4/5,10:00,118,137
��Ƃ�̍L��,�����w����,2022/4/5,11:00,158,142
��Ƃ�̍L��,�����w����,2022/4/5,12:00,221,200
��Ƃ�̍L��,�����w����,2022/4/5,13:00,218,197
��Ƃ�̍L��,�����w����,2022/4/5,14:00,203,141
��Ƃ�̍L��,�����w����,2022/4/5,15:00,173,141
��Ƃ�̍L��,�����w����,2022/4/5,16:00,152,127
��Ƃ�̍L��,�����w����,2022/4/5,17:00,104,92
��Ƃ�̍L��,�����w����,2022/4/5,18:00,63,77
��Ƃ�̍L��,�����w����,2022/4/5,19:00,33,29
��Ƃ�̍L��,�����w����,2022/4/5,20:00,38,42
��Ƃ�̍L��,�����w����,2022/4/5,21:00,20,39
��Ƃ�̍L��,�����w����,2022/4/5,22:00,17,14
��Ƃ�̍L��,�����w����,2022/4/5,23:00,9,9
��Ƃ�̍L��,�����w����,2022/4/6,0:00,9,2
��Ƃ�̍L��,�����w����,2022/4/6,1:00,3,3
��Ƃ�̍L��,�����w����,2022/4/6,2:00,5,3
��Ƃ�̍L��,�����w����,2022/4/6,3:00,5,7
��Ƃ�̍L��,�����w����,2022/4/6,4:00,13,3
��Ƃ�̍L��,�����w����,2022/4/6,5:00,15,14
��Ƃ�̍L��,�����w����,2022/4/6,6:00,29,20
��Ƃ�̍L��,�����w����,2022/4/6,7:00,46,85
��Ƃ�̍L��,�����w����,2022/4/6,8:00,54,106
��Ƃ�̍L��,�����w����,2022/4/6,9:00,75,91
��Ƃ�̍L��,�����w����,2022/4/6,10:00,102,146
��Ƃ�̍L��,�����w����,2022/4/6,11:00,119,163
��Ƃ�̍L��,�����w����,2022/4/6,12:00,190,181
��Ƃ�̍L��,�����w����,2022/4/6,13:00,186,178
��Ƃ�̍L��,�����w����,2022/4/6,14:00,159,133
��Ƃ�̍L��,�����w����,2022/4/6,15:00,128,105
��Ƃ�̍L��,�����w����,2022/4/6,16:00,141,81
��Ƃ�̍L��,�����w����,2022/4/6,17:00,138,87
��Ƃ�̍L��,�����w����,2022/4/6,18:00,68,59
��Ƃ�̍L��,�����w����,2022/4/6,19:00,41,57
��Ƃ�̍L��,�����w����,2022/4/6,20:00,43,43
��Ƃ�̍L��,�����w����,2022/4/6,21:00,24,40
��Ƃ�̍L��,�����w����,2022/4/6,22:00,12,17
��Ƃ�̍L��,�����w����,2022/4/6,23:00,8,7
��Ƃ�̍L��,�����w����,2022/4/7,0:00,8,11
��Ƃ�̍L��,�����w����,2022/4/7,1:00,4,3
��Ƃ�̍L��,�����w����,2022/4/7,2:00,6,2
��Ƃ�̍L��,�����w����,2022/4/7,3:00,4,8
��Ƃ�̍L��,�����w����,2022/4/7,4:00,13,7
��Ƃ�̍L��,�����w����,2022/4/7,5:00,20,13
��Ƃ�̍L��,�����w����,2022/4/7,6:00,27,18
��Ƃ�̍L��,�����w����,2022/4/7,7:00,32,45
��Ƃ�̍L��,�����w����,2022/4/7,8:00,50,59
��Ƃ�̍L��,�����w����,2022/4/7,9:00,78,79
��Ƃ�̍L��,�����w����,2022/4/7,10:00,89,78
��Ƃ�̍L��,�����w����,2022/4/7,11:00,116,166
��Ƃ�̍L��,�����w����,2022/4/7,12:00,173,140
��Ƃ�̍L��,�����w����,2022/4/7,13:00,115,104
��Ƃ�̍L��,�����w����,2022/4/7,14:00,124,106
��Ƃ�̍L��,�����w����,2022/4/7,15:00,116,87
��Ƃ�̍L��,�����w����,2022/4/7,16:00,106,75
��Ƃ�̍L��,�����w����,2022/4/7,17:00,77,56
��Ƃ�̍L��,�����w����,2022/4/7,18:00,49,48
��Ƃ�̍L��,�����w����,2022/4/7,19:00,37,54
��Ƃ�̍L��,�����w����,2022/4/7,20:00,20,26
��Ƃ�̍L��,�����w����,2022/4/7,21:00,27,29
��Ƃ�̍L��,�����w����,2022/4/7,22:00,12,9
��Ƃ�̍L��,�����w����,2022/4/7,23:00,7,8
��Ƃ�̍L��,�����w����,2022/4/8,0:00,5,6
��Ƃ�̍L��,�����w����,2022/4/8,1:00,5,2
��Ƃ�̍L��,�����w����,2022/4/8,2:00,2,3
��Ƃ�̍L��,�����w����,2022/4/8,3:00,4,9
��Ƃ�̍L��,�����w����,2022/4/8,4:00,8,5
��Ƃ�̍L��,�����w����,2022/4/8,5:00,18,8
��Ƃ�̍L��,�����w����,2022/4/8,6:00,38,25
��Ƃ�̍L��,�����w����,2022/4/8,7:00,55,166
��Ƃ�̍L��,�����w����,2022/4/8,8:00,49,136
��Ƃ�̍L��,�����w����,2022/4/8,9:00,83,82
��Ƃ�̍L��,�����w����,2022/4/8,10:00,99,137
��Ƃ�̍L��,�����w����,2022/4/8,11:00,131,154
��Ƃ�̍L��,�����w����,2022/4/8,12:00,169,162
��Ƃ�̍L��,�����w����,2022/4/8,13:00,143,137
��Ƃ�̍L��,�����w����,2022/4/8,14:00,138,109
��Ƃ�̍L��,�����w����,2022/4/8,15:00,188,102
��Ƃ�̍L��,�����w����,2022/4/8,16:00,159,104
��Ƃ�̍L��,�����w����,2022/4/8,17:00,117,74
��Ƃ�̍L��,�����w����,2022/4/8,18:00,124,79
��Ƃ�̍L��,�����w����,2022/4/8,19:00,58,60
��Ƃ�̍L��,�����w����,2022/4/8,20:00,37,44
��Ƃ�̍L��,�����w����,2022/4/8,21:00,32,26
��Ƃ�̍L��,�����w����,2022/4/8,22:00,28,18
��Ƃ�̍L��,�����w����,2022/4/8,23:00,17,16
��Ƃ�̍L��,�����w����,2022/4/9,0:00,14,7
��Ƃ�̍L��,�����w����,2022/4/9,1:00,26,11
��Ƃ�̍L��,�����w����,2022/4/9,2:00,12,10
��Ƃ�̍L��,�����w����,2022/4/9,3:00,8,9
��Ƃ�̍L��,�����w����,2022/4/9,4:00,12,8
��Ƃ�̍L��,�����w����,2022/4/9,5:00,19,11
��Ƃ�̍L��,�����w����,2022/4/9,6:00,27,23
��Ƃ�̍L��,�����w����,2022/4/9,7:00,33,34
��Ƃ�̍L��,�����w����,2022/4/9,8:00,47,61
��Ƃ�̍L��,�����w����,2022/4/9,9:00,99,105
��Ƃ�̍L��,�����w����,2022/4/9,10:00,174,138
��Ƃ�̍L��,�����w����,2022/4/9,11:00,194,245
��Ƃ�̍L��,�����w����,2022/4/9,12:00,231,219
��Ƃ�̍L��,�����w����,2022/4/9,13:00,224,244
��Ƃ�̍L��,�����w����,2022/4/9,14:00,253,241
��Ƃ�̍L��,�����w����,2022/4/9,15:00,196,233
��Ƃ�̍L��,�����w����,2022/4/9,16:00,177,182
��Ƃ�̍L��,�����w����,2022/4/9,17:00,143,119
��Ƃ�̍L��,�����w����,2022/4/9,18:00,85,78
��Ƃ�̍L��,�����w����,2022/4/9,19:00,117,60
��Ƃ�̍L��,�����w����,2022/4/9,20:00,128,45
��Ƃ�̍L��,�����w����,2022/4/9,21:00,119,56
��Ƃ�̍L��,�����w����,2022/4/9,22:00,99,22
��Ƃ�̍L��,�����w����,2022/4/9,23:00,98,15
��Ƃ�̍L��,�����w����,2022/4/10,0:00,111,7
��Ƃ�̍L��,�����w����,2022/4/10,1:00,92,2
��Ƃ�̍L��,�����w����,2022/4/10,2:00,94,8
��Ƃ�̍L��,�����w����,2022/4/10,3:00,90,14
��Ƃ�̍L��,�����w����,2022/4/10,4:00,89,2
��Ƃ�̍L��,�����w����,2022/4/10,5:00,92,5
��Ƃ�̍L��,�����w����,2022/4/10,6:00,99,13
��Ƃ�̍L��,�����w����,2022/4/10,7:00,112,16
��Ƃ�̍L��,�����w����,2022/4/10,8:00,132,36
��Ƃ�̍L��,�����w����,2022/4/10,9:00,119,86
��Ƃ�̍L��,�����w����,2022/4/10,10:00,166,156
��Ƃ�̍L��,�����w����,2022/4/10,11:00,212,186
��Ƃ�̍L��,�����w����,2022/4/10,12:00,244,247
��Ƃ�̍L��,�����w����,2022/4/10,13:00,259,295
��Ƃ�̍L��,�����w����,2022/4/10,14:00,230,260
��Ƃ�̍L��,�����w����,2022/4/10,15:00,212,223
��Ƃ�̍L��,�����w����,2022/4/10,16:00,146,142
��Ƃ�̍L��,�����w����,2022/4/10,17:00,107,82
��Ƃ�̍L��,�����w����,2022/4/10,18:00,103,62
��Ƃ�̍L��,�����w����,2022/4/10,19:00,114,47
��Ƃ�̍L��,�����w����,2022/4/10,20:00,99,33
��Ƃ�̍L��,�����w����,2022/4/10,21:00,93,30
��Ƃ�̍L��,�����w����,2022/4/10,22:00,93,21
��Ƃ�̍L��,�����w����,2022/4/10,23:00,98,14
��Ƃ�̍L��,�����w����,2022/4/11,0:00,104,9
��Ƃ�̍L��,�����w����,2022/4/11,1:00,104,10
��Ƃ�̍L��,�����w����,2022/4/11,2:00,90,4
��Ƃ�̍L��,�����w����,2022/4/11,3:00,108,7
��Ƃ�̍L��,�����w����,2022/4/11,4:00,105,5
��Ƃ�̍L��,�����w����,2022/4/11,5:00,92,15
��Ƃ�̍L��,�����w����,2022/4/11,6:00,139,24
��Ƃ�̍L��,�����w����,2022/4/11,7:00,135,212
��Ƃ�̍L��,�����w����,2022/4/11,8:00,127,139
��Ƃ�̍L��,�����w����,2022/4/11,9:00,207,335
��Ƃ�̍L��,�����w����,2022/4/11,10:00,136,222
��Ƃ�̍L��,�����w����,2022/4/11,11:00,113,84
��Ƃ�̍L��,�����w����,2022/4/11,12:00,146,123
��Ƃ�̍L��,�����w����,2022/4/11,13:00,112,97
��Ƃ�̍L��,�����w����,2022/4/11,14:00,98,105
��Ƃ�̍L��,�����w����,2022/4/11,15:00,100,94
��Ƃ�̍L��,�����w����,2022/4/11,16:00,116,65
��Ƃ�̍L��,�����w����,2022/4/11,17:00,120,69
��Ƃ�̍L��,�����w����,2022/4/11,18:00,154,56
��Ƃ�̍L��,�����w����,2022/4/11,19:00,39,44
��Ƃ�̍L��,�����w����,2022/4/11,20:00,31,17
��Ƃ�̍L��,�����w����,2022/4/11,21:00,22,30
��Ƃ�̍L��,�����w����,2022/4/11,22:00,7,28
��Ƃ�̍L��,�����w����,2022/4/11,23:00,7,6
��Ƃ�̍L��,�����w����,2022/4/12,0:00,6,4
��Ƃ�̍L��,�����w����,2022/4/12,1:00,7,4
��Ƃ�̍L��,�����w����,2022/4/12,2:00,1,2
��Ƃ�̍L��,�����w����,2022/4/12,3:00,2,10
��Ƃ�̍L��,�����w����,2022/4/12,4:00,8,7
��Ƃ�̍L��,�����w����,2022/4/12,5:00,15,10
��Ƃ�̍L��,�����w����,2022/4/12,6:00,22,38
��Ƃ�̍L��,�����w����,2022/4/12,7:00,45,196
��Ƃ�̍L��,�����w����,2022/4/12,8:00,59,119
��Ƃ�̍L��,�����w����,2022/4/12,9:00,166,210
��Ƃ�̍L��,�����w����,2022/4/12,10:00,149,212
��Ƃ�̍L��,�����w����,2022/4/12,11:00,78,89
��Ƃ�̍L��,�����w����,2022/4/12,12:00,110,101
��Ƃ�̍L��,�����w����,2022/4/12,13:00,73,125
��Ƃ�̍L��,�����w����,2022/4/12,14:00,87,88
��Ƃ�̍L��,�����w����,2022/4/12,15:00,62,81
��Ƃ�̍L��,�����w����,2022/4/12,16:00,95,78
��Ƃ�̍L��,�����w����,2022/4/12,17:00,115,80
��Ƃ�̍L��,�����w����,2022/4/12,18:00,132,62
��Ƃ�̍L��,�����w����,2022/4/12,19:00,92,46
��Ƃ�̍L��,�����w����,2022/4/12,20:00,117,36
��Ƃ�̍L��,�����w����,2022/4/12,21:00,101,22
��Ƃ�̍L��,�����w����,2022/4/12,22:00,79,16
��Ƃ�̍L��,�����w����,2022/4/12,23:00,83,12
��Ƃ�̍L��,�����w����,2022/4/13,0:00,85,10
��Ƃ�̍L��,�����w����,2022/4/13,1:00,90,6
��Ƃ�̍L��,�����w����,2022/4/13,2:00,78,2
��Ƃ�̍L��,�����w����,2022/4/13,3:00,97,8
��Ƃ�̍L��,�����w����,2022/4/13,4:00,99,3
��Ƃ�̍L��,�����w����,2022/4/13,5:00,109,9
��Ƃ�̍L��,�����w����,2022/4/13,6:00,109,27
��Ƃ�̍L��,�����w����,2022/4/13,7:00,116,187
��Ƃ�̍L��,�����w����,2022/4/13,8:00,121,102
��Ƃ�̍L��,�����w����,2022/4/13,9:00,89,81
��Ƃ�̍L��,�����w����,2022/4/13,10:00,97,94
��Ƃ�̍L��,�����w����,2022/4/13,11:00,86,94
��Ƃ�̍L��,�����w����,2022/4/13,12:00,126,95
��Ƃ�̍L��,�����w����,2022/4/13,13:00,92,116
��Ƃ�̍L��,�����w����,2022/4/13,14:00,77,81
��Ƃ�̍L��,�����w����,2022/4/13,15:00,53,62
��Ƃ�̍L��,�����w����,2022/4/13,16:00,135,59
��Ƃ�̍L��,�����w����,2022/4/13,17:00,98,66
��Ƃ�̍L��,�����w����,2022/4/13,18:00,77,35
��Ƃ�̍L��,�����w����,2022/4/13,19:00,84,41
��Ƃ�̍L��,�����w����,2022/4/13,20:00,70,39
��Ƃ�̍L��,�����w����,2022/4/13,21:00,99,26
��Ƃ�̍L��,�����w����,2022/4/13,22:00,118,20
��Ƃ�̍L��,�����w����,2022/4/13,23:00,95,7
��Ƃ�̍L��,�����w����,2022/4/14,0:00,92,4
��Ƃ�̍L��,�����w����,2022/4/14,1:00,84,5
��Ƃ�̍L��,�����w����,2022/4/14,2:00,91,4
��Ƃ�̍L��,�����w����,2022/4/14,3:00,92,13
��Ƃ�̍L��,�����w����,2022/4/14,4:00,94,7
��Ƃ�̍L��,�����w����,2022/4/14,5:00,88,14
��Ƃ�̍L��,�����w����,2022/4/14,6:00,128,15
��Ƃ�̍L��,�����w����,2022/4/14,7:00,136,76
��Ƃ�̍L��,�����w����,2022/4/14,8:00,156,98
��Ƃ�̍L��,�����w����,2022/4/14,9:00,147,69
��Ƃ�̍L��,�����w����,2022/4/14,10:00,158,51
��Ƃ�̍L��,�����w����,2022/4/14,11:00,143,57
��Ƃ�̍L��,�����w����,2022/4/14,12:00,164,77
��Ƃ�̍L��,�����w����,2022/4/14,13:00,141,50
��Ƃ�̍L��,�����w����,2022/4/14,14:00,129,44
��Ƃ�̍L��,�����w����,2022/4/14,15:00,204,90
��Ƃ�̍L��,�����w����,2022/4/14,16:00,188,84
��Ƃ�̍L��,�����w����,2022/4/14,17:00,223,41
��Ƃ�̍L��,�����w����,2022/4/14,18:00,201,36
��Ƃ�̍L��,�����w����,2022/4/14,19:00,120,29
��Ƃ�̍L��,�����w����,2022/4/14,20:00,119,14
��Ƃ�̍L��,�����w����,2022/4/14,21:00,142,24
��Ƃ�̍L��,�����w����,2022/4/14,22:00,106,4
��Ƃ�̍L��,�����w����,2022/4/14,23:00,94,4
��Ƃ�̍L��,�����w����,2022/4/15,0:00,97,3
��Ƃ�̍L��,�����w����,2022/4/15,1:00,111,4
��Ƃ�̍L��,�����w����,2022/4/15,2:00,92,6
��Ƃ�̍L��,�����w����,2022/4/15,3:00,97,8
��Ƃ�̍L��,�����w����,2022/4/15,4:00,116,3
��Ƃ�̍L��,�����w����,2022/4/15,5:00,115,9
��Ƃ�̍L��,�����w����,2022/4/15,6:00,132,20
��Ƃ�̍L��,�����w����,2022/4/15,7:00,166,215
��Ƃ�̍L��,�����w����,2022/4/15,8:00,174,155
��Ƃ�̍L��,�����w����,2022/4/15,9:00,186,86
��Ƃ�̍L��,�����w����,2022/4/15,10:00,193,108
��Ƃ�̍L��,�����w����,2022/4/15,11:00,197,134
��Ƃ�̍L��,�����w����,2022/4/15,12:00,247,204
��Ƃ�̍L��,�����w����,2022/4/15,13:00,232,152
��Ƃ�̍L��,�����w����,2022/4/15,14:00,184,163
��Ƃ�̍L��,�����w����,2022/4/15,15:00,265,148
��Ƃ�̍L��,�����w����,2022/4/15,16:00,293,188
��Ƃ�̍L��,�����w����,2022/4/15,17:00,193,112
��Ƃ�̍L��,�����w����,2022/4/15,18:00,235,83
��Ƃ�̍L��,�����w����,2022/4/15,19:00,133,46
��Ƃ�̍L��,�����w����,2022/4/15,20:00,149,46
��Ƃ�̍L��,�����w����,2022/4/15,21:00,133,41
��Ƃ�̍L��,�����w����,2022/4/15,22:00,108,30
��Ƃ�̍L��,�����w����,2022/4/15,23:00,117,23
��Ƃ�̍L��,�����w����,2022/4/16,0:00,36,9
��Ƃ�̍L��,�����w����,2022/4/16,1:00,9,6
��Ƃ�̍L��,�����w����,2022/4/16,2:00,4,6
��Ƃ�̍L��,�����w����,2022/4/16,3:00,10,10
��Ƃ�̍L��,�����w����,2022/4/16,4:00,10,7
��Ƃ�̍L��,�����w����,2022/4/16,5:00,8,11
��Ƃ�̍L��,�����w����,2022/4/16,6:00,23,13
��Ƃ�̍L��,�����w����,2022/4/16,7:00,29,55
��Ƃ�̍L��,�����w����,2022/4/16,8:00,49,41
��Ƃ�̍L��,�����w����,2022/4/16,9:00,60,72
��Ƃ�̍L��,�����w����,2022/4/16,10:00,143,108
��Ƃ�̍L��,�����w����,2022/4/16,11:00,398,230
��Ƃ�̍L��,�����w����,2022/4/16,12:00,390,284
��Ƃ�̍L��,�����w����,2022/4/16,13:00,418,264
��Ƃ�̍L��,�����w����,2022/4/16,14:00,435,296
��Ƃ�̍L��,�����w����,2022/4/16,15:00,487,237
��Ƃ�̍L��,�����w����,2022/4/16,16:00,388,220
��Ƃ�̍L��,�����w����,2022/4/16,17:00,393,218
��Ƃ�̍L��,�����w����,2022/4/16,18:00,303,171
��Ƃ�̍L��,�����w����,2022/4/16,19:00,140,49
��Ƃ�̍L��,�����w����,2022/4/16,20:00,40,43
��Ƃ�̍L��,�����w����,2022/4/16,21:00,43,25
��Ƃ�̍L��,�����w����,2022/4/16,22:00,28,36
��Ƃ�̍L��,�����w����,2022/4/16,23:00,15,16
��Ƃ�̍L��,�����w����,2022/4/17,0:00,13,6
��Ƃ�̍L��,�����w����,2022/4/17,1:00,8,3
��Ƃ�̍L��,�����w����,2022/4/17,2:00,9,3
��Ƃ�̍L��,�����w����,2022/4/17,3:00,8,11
��Ƃ�̍L��,�����w����,2022/4/17,4:00,8,4
��Ƃ�̍L��,�����w����,2022/4/17,5:00,13,11
��Ƃ�̍L��,�����w����,2022/4/17,6:00,27,10
��Ƃ�̍L��,�����w����,2022/4/17,7:00,31,34
��Ƃ�̍L��,�����w����,2022/4/17,8:00,42,34
��Ƃ�̍L��,�����w����,2022/4/17,9:00,169,181
��Ƃ�̍L��,�����w����,2022/4/17,10:00,225,310
��Ƃ�̍L��,�����w����,2022/4/17,11:00,297,222
��Ƃ�̍L��,�����w����,2022/4/17,12:00,332,236
��Ƃ�̍L��,�����w����,2022/4/17,13:00,289,249
��Ƃ�̍L��,�����w����,2022/4/17,14:00,270,274
��Ƃ�̍L��,�����w����,2022/4/17,15:00,307,179
��Ƃ�̍L��,�����w����,2022/4/17,16:00,256,182
��Ƃ�̍L��,�����w����,2022/4/17,17:00,218,118
��Ƃ�̍L��,�����w����,2022/4/17,18:00,165,69
��Ƃ�̍L��,�����w����,2022/4/17,19:00,123,33
��Ƃ�̍L��,�����w����,2022/4/17,20:00,61,54
��Ƃ�̍L��,�����w����,2022/4/17,21:00,22,36
��Ƃ�̍L��,�����w����,2022/4/17,22:00,13,26
��Ƃ�̍L��,�����w����,2022/4/17,23:00,9,17
��Ƃ�̍L��,�����w����,2022/4/18,0:00,4,8
��Ƃ�̍L��,�����w����,2022/4/18,1:00,5,7
��Ƃ�̍L��,�����w����,2022/4/18,2:00,2,2
��Ƃ�̍L��,�����w����,2022/4/18,3:00,5,8
��Ƃ�̍L��,�����w����,2022/4/18,4:00,13,3
��Ƃ�̍L��,�����w����,2022/4/18,5:00,15,10
��Ƃ�̍L��,�����w����,2022/4/18,6:00,27,27
��Ƃ�̍L��,�����w����,2022/4/18,7:00,58,204
��Ƃ�̍L��,�����w����,2022/4/18,8:00,77,138
��Ƃ�̍L��,�����w����,2022/4/18,9:00,132,138
��Ƃ�̍L��,�����w����,2022/4/18,10:00,119,116
��Ƃ�̍L��,�����w����,2022/4/18,11:00,123,155
��Ƃ�̍L��,�����w����,2022/4/18,12:00,162,167
��Ƃ�̍L��,�����w����,2022/4/18,13:00,136,112
��Ƃ�̍L��,�����w����,2022/4/18,14:00,103,98
��Ƃ�̍L��,�����w����,2022/4/18,15:00,122,85
��Ƃ�̍L��,�����w����,2022/4/18,16:00,123,85
��Ƃ�̍L��,�����w����,2022/4/18,17:00,122,72
��Ƃ�̍L��,�����w����,2022/4/18,18:00,143,86
��Ƃ�̍L��,�����w����,2022/4/18,19:00,35,34
��Ƃ�̍L��,�����w����,2022/4/18,20:00,26,38
��Ƃ�̍L��,�����w����,2022/4/18,21:00,18,27
��Ƃ�̍L��,�����w����,2022/4/18,22:00,15,12
��Ƃ�̍L��,�����w����,2022/4/18,23:00,5,3
��Ƃ�̍L��,�����w����,2022/4/19,0:00,3,3
��Ƃ�̍L��,�����w����,2022/4/19,1:00,6,6
��Ƃ�̍L��,�����w����,2022/4/19,2:00,3,2
��Ƃ�̍L��,�����w����,2022/4/19,3:00,5,9
��Ƃ�̍L��,�����w����,2022/4/19,4:00,11,5
��Ƃ�̍L��,�����w����,2022/4/19,5:00,25,11
��Ƃ�̍L��,�����w����,2022/4/19,6:00,32,27
��Ƃ�̍L��,�����w����,2022/4/19,7:00,56,186
��Ƃ�̍L��,�����w����,2022/4/19,8:00,77,139
��Ƃ�̍L��,�����w����,2022/4/19,9:00,108,137
��Ƃ�̍L��,�����w����,2022/4/19,10:00,134,124
��Ƃ�̍L��,�����w����,2022/4/19,11:00,129,107
��Ƃ�̍L��,�����w����,2022/4/19,12:00,120,125
��Ƃ�̍L��,�����w����,2022/4/19,13:00,94,93
��Ƃ�̍L��,�����w����,2022/4/19,14:00,128,90
��Ƃ�̍L��,�����w����,2022/4/19,15:00,69,89
��Ƃ�̍L��,�����w����,2022/4/19,16:00,145,111
��Ƃ�̍L��,�����w����,2022/4/19,17:00,123,67
��Ƃ�̍L��,�����w����,2022/4/19,18:00,166,56
��Ƃ�̍L��,�����w����,2022/4/19,19:00,58,58
��Ƃ�̍L��,�����w����,2022/4/19,20:00,50,84
��Ƃ�̍L��,�����w����,2022/4/19,21:00,48,61
��Ƃ�̍L��,�����w����,2022/4/19,22:00,33,40
��Ƃ�̍L��,�����w����,2022/4/19,23:00,22,29
��Ƃ�̍L��,�����w����,2022/4/20,0:00,15,16
��Ƃ�̍L��,�����w����,2022/4/20,1:00,15,16
��Ƃ�̍L��,�����w����,2022/4/20,2:00,3,1
��Ƃ�̍L��,�����w����,2022/4/20,3:00,6,10
��Ƃ�̍L��,�����w����,2022/4/20,4:00,10,4
��Ƃ�̍L��,�����w����,2022/4/20,5:00,22,12
��Ƃ�̍L��,�����w����,2022/4/20,6:00,29,25
��Ƃ�̍L��,�����w����,2022/4/20,7:00,52,184
��Ƃ�̍L��,�����w����,2022/4/20,8:00,70,160
��Ƃ�̍L��,�����w����,2022/4/20,9:00,111,150
��Ƃ�̍L��,�����w����,2022/4/20,10:00,131,153
��Ƃ�̍L��,�����w����,2022/4/20,11:00,90,100
��Ƃ�̍L��,�����w����,2022/4/20,12:00,118,144
��Ƃ�̍L��,�����w����,2022/4/20,13:00,99,122
��Ƃ�̍L��,�����w����,2022/4/20,14:00,94,92
��Ƃ�̍L��,�����w����,2022/4/20,15:00,146,101
��Ƃ�̍L��,�����w����,2022/4/20,16:00,174,78
��Ƃ�̍L��,�����w����,2022/4/20,17:00,91,76
��Ƃ�̍L��,�����w����,2022/4/20,18:00,87,74
��Ƃ�̍L��,�����w����,2022/4/20,19:00,34,38
��Ƃ�̍L��,�����w����,2022/4/20,20:00,33,65
��Ƃ�̍L��,�����w����,2022/4/20,21:00,25,41
��Ƃ�̍L��,�����w����,2022/4/20,22:00,13,27
��Ƃ�̍L��,�����w����,2022/4/20,23:00,14,13
��Ƃ�̍L��,�����w����,2022/4/21,0:00,12,15
��Ƃ�̍L��,�����w����,2022/4/21,1:00,5,17
��Ƃ�̍L��,�����w����,2022/4/21,2:00,8,22
��Ƃ�̍L��,�����w����,2022/4/21,3:00,7,12
��Ƃ�̍L��,�����w����,2022/4/21,4:00,7,4
��Ƃ�̍L��,�����w����,2022/4/21,5:00,15,9
��Ƃ�̍L��,�����w����,2022/4/21,6:00,13,30
��Ƃ�̍L��,�����w����,2022/4/21,7:00,38,120
��Ƃ�̍L��,�����w����,2022/4/21,8:00,60,140
��Ƃ�̍L��,�����w����,2022/4/21,9:00,96,47
��Ƃ�̍L��,�����w����,2022/4/21,10:00,81,94
��Ƃ�̍L��,�����w����,2022/4/21,11:00,80,99
��Ƃ�̍L��,�����w����,2022/4/21,12:00,123,108
��Ƃ�̍L��,�����w����,2022/4/21,13:00,142,99
��Ƃ�̍L��,�����w����,2022/4/21,14:00,86,62
��Ƃ�̍L��,�����w����,2022/4/21,15:00,114,47
��Ƃ�̍L��,�����w����,2022/4/21,16:00,72,56
��Ƃ�̍L��,�����w����,2022/4/21,17:00,223,240
��Ƃ�̍L��,�����w����,2022/4/21,18:00,104,63
��Ƃ�̍L��,�����w����,2022/4/21,19:00,41,52
��Ƃ�̍L��,�����w����,2022/4/21,20:00,44,45
��Ƃ�̍L��,�����w����,2022/4/21,21:00,39,46
��Ƃ�̍L��,�����w����,2022/4/21,22:00,13,22
��Ƃ�̍L��,�����w����,2022/4/21,23:00,10,20
��Ƃ�̍L��,�����w����,2022/4/22,0:00,8,10
��Ƃ�̍L��,�����w����,2022/4/22,1:00,8,16
��Ƃ�̍L��,�����w����,2022/4/22,2:00,6,7
��Ƃ�̍L��,�����w����,2022/4/22,3:00,5,6
��Ƃ�̍L��,�����w����,2022/4/22,4:00,7,2
��Ƃ�̍L��,�����w����,2022/4/22,5:00,14,8
��Ƃ�̍L��,�����w����,2022/4/22,6:00,23,18
��Ƃ�̍L��,�����w����,2022/4/22,7:00,35,107
��Ƃ�̍L��,�����w����,2022/4/22,8:00,54,139
��Ƃ�̍L��,�����w����,2022/4/22,9:00,81,66
��Ƃ�̍L��,�����w����,2022/4/22,10:00,150,294
��Ƃ�̍L��,�����w����,2022/4/22,11:00,314,180
��Ƃ�̍L��,�����w����,2022/4/22,12:00,307,194
��Ƃ�̍L��,�����w����,2022/4/22,13:00,260,251
��Ƃ�̍L��,�����w����,2022/4/22,14:00,185,214
��Ƃ�̍L��,�����w����,2022/4/22,15:00,175,129
��Ƃ�̍L��,�����w����,2022/4/22,16:00,197,111
��Ƃ�̍L��,�����w����,2022/4/22,17:00,202,129
��Ƃ�̍L��,�����w����,2022/4/22,18:00,289,106
��Ƃ�̍L��,�����w����,2022/4/22,19:00,177,89
��Ƃ�̍L��,�����w����,2022/4/22,20:00,27,55
��Ƃ�̍L��,�����w����,2022/4/22,21:00,35,58
��Ƃ�̍L��,�����w����,2022/4/22,22:00,19,31
��Ƃ�̍L��,�����w����,2022/4/22,23:00,27,19
��Ƃ�̍L��,�����w����,2022/4/23,0:00,16,11
��Ƃ�̍L��,�����w����,2022/4/23,1:00,18,4
��Ƃ�̍L��,�����w����,2022/4/23,2:00,4,7
��Ƃ�̍L��,�����w����,2022/4/23,3:00,3,11
��Ƃ�̍L��,�����w����,2022/4/23,4:00,7,3
��Ƃ�̍L��,�����w����,2022/4/23,5:00,14,10
��Ƃ�̍L��,�����w����,2022/4/23,6:00,12,19
��Ƃ�̍L��,�����w����,2022/4/23,7:00,31,37
��Ƃ�̍L��,�����w����,2022/4/23,8:00,82,64
��Ƃ�̍L��,�����w����,2022/4/23,9:00,75,126
��Ƃ�̍L��,�����w����,2022/4/23,10:00,140,181
��Ƃ�̍L��,�����w����,2022/4/23,11:00,228,185
��Ƃ�̍L��,�����w����,2022/4/23,12:00,211,210
��Ƃ�̍L��,�����w����,2022/4/23,13:00,209,227
��Ƃ�̍L��,�����w����,2022/4/23,14:00,261,236
��Ƃ�̍L��,�����w����,2022/4/23,15:00,214,217
��Ƃ�̍L��,�����w����,2022/4/23,16:00,195,168
��Ƃ�̍L��,�����w����,2022/4/23,17:00,175,132
��Ƃ�̍L��,�����w����,2022/4/23,18:00,126,103
��Ƃ�̍L��,�����w����,2022/4/23,19:00,52,74
��Ƃ�̍L��,�����w����,2022/4/23,20:00,37,47
��Ƃ�̍L��,�����w����,2022/4/23,21:00,40,40
��Ƃ�̍L��,�����w����,2022/4/23,22:00,26,40
��Ƃ�̍L��,�����w����,2022/4/23,23:00,37,23
��Ƃ�̍L��,�����w����,2022/4/24,0:00,19,36
��Ƃ�̍L��,�����w����,2022/4/24,1:00,17,36
��Ƃ�̍L��,�����w����,2022/4/24,2:00,9,17
��Ƃ�̍L��,�����w����,2022/4/24,3:00,4,8
��Ƃ�̍L��,�����w����,2022/4/24,4:00,44,44
��Ƃ�̍L��,�����w����,2022/4/24,5:00,36,37
��Ƃ�̍L��,�����w����,2022/4/24,6:00,83,20
��Ƃ�̍L��,�����w����,2022/4/24,7:00,59,32
��Ƃ�̍L��,�����w����,2022/4/24,8:00,57,79
��Ƃ�̍L��,�����w����,2022/4/24,9:00,65,81